Weather History for KMPO - July, 2013

Change the Weather History Date:

Wednesday, July 24, 2013

  Actual Average Record
Temperature  
Mean Temperature 63 °F 68 °F  
Max Temperature 72 °F 78 °F 91 °F (1914)
Min Temperature 53 °F 59 °F 40 °F (1953)
Degree Days  
Heating Degree Days 2 1  
Month to date heating degree days 2 24  
Since 1 June heating degree days 78 124  
Since 1 July heating degree days 2 24  
Cooling Degree Days 0 4  
Month to date cooling degree days 225 95  
Year to date cooling degree days 338 176  
Since 1 June cooling degree days 306 157  
Growing Degree Days 13 (Base 50)    
Moisture  
Dew Point 57 °F    
Average Humidity 73    
Maximum Humidity 93    
Minimum Humidity 53    
Precipitation  
Precipitation 0.00 in 0.17 in 2.00 in (1988)
Month to date precipitation 5.56 3.38  
Year to date precipitation 28.76 25.26  
Sea Level Pressure  
Sea Level Pressure 29.81 in    
Wind  
Wind Speed 10 mph (NW)    
Max Wind Speed 18 mph    
Max Gust Speed 25 mph    
Visibility 9 miles    
Events      
T = Trace of Precipitation, MM = Missing Value Source: NWS Daily Summary

Daily Weather History Graph

Daily Weather History Graph

Search for Another Location

Airport or City:

Trip Planner

Search our weather history database for the weather conditions in past years. The results will help you decide how hot, cold, wet, or windy it might be!

Date:

Astronomy

Jul. 24, 2013 Rise Set
Actual Time 5:49 AM EDT 8:25 PM EDT
Civil Twilight 5:18 AM EDT 8:57 PM EDT
Nautical Twilight 4:38 AM EDT 9:36 PM EDT
Astronomical Twilight 3:53 AM EDT 10:21 PM EDT
Moon 9:28 PM EDT (7/24) 8:08 AM EDT (7/24)
Length of Visible Light 15h 39m
Length of Day
14h 35m
Waning Gibbous, 95% of the Moon is Illuminated
Jul 24
Waning Gibbous
Jul 29
Last Quarter
Aug 6
New
Aug 14
First Quarter
Aug 20
Full

Hourly Weather History & Observations

Time (EDT) Temp. Dew Point Humidity Pressure Visibility Wind Dir Wind Speed Gust Speed Precip Events Conditions
12:53 AM 66.9 °F 64.0 °F 90% 29.69 in 10.0 mi WNW 4.6 mph - N/A   Partly Cloudy
1:53 AM 66.9 °F 63.0 °F 87% 29.69 in 10.0 mi WNW 8.1 mph - N/A   Mostly Cloudy
2:53 AM 64.9 °F 63.0 °F 93% 29.68 in 8.0 mi WNW 8.1 mph - N/A   Clear
3:53 AM 64.0 °F 62.1 °F 93% 29.69 in 9.0 mi WNW 9.2 mph - N/A   Clear
4:12 AM 64.4 °F 62.6 °F 94% 29.73 in 8.0 mi NW 8.1 mph - N/A   Partly Cloudy
4:32 AM 62.6 °F 60.8 °F 94% 29.73 in 7.0 mi NW 6.9 mph - N/A   Mostly Cloudy
4:46 AM 64.4 °F 60.8 °F 88% 29.73 in 8.0 mi NNW 6.9 mph - N/A   Scattered Clouds
4:53 AM 64.0 °F 62.1 °F 93% 29.70 in 7.0 mi NW 5.8 mph - N/A   Partly Cloudy
5:18 AM 64.4 °F 62.6 °F 94% 29.73 in 6.0 mi NW 6.9 mph - N/A   Mostly Cloudy
5:53 AM 64.0 °F 62.1 °F 93% 29.70 in 8.0 mi WNW 8.1 mph - N/A   Overcast
6:42 AM 64.4 °F 62.6 °F 94% 29.76 in 7.0 mi NW 5.8 mph - N/A   Overcast
6:53 AM 64.9 °F 62.1 °F 90% 29.72 in 7.0 mi Calm Calm - N/A   Overcast
7:17 AM 64.4 °F 62.6 °F 94% 29.76 in 7.0 mi WNW 6.9 mph - N/A   Mostly Cloudy
7:24 AM 64.4 °F 62.6 °F 94% 29.77 in 7.0 mi West 8.1 mph - N/A   Overcast
7:53 AM 66.0 °F 62.1 °F 87% 29.74 in 9.0 mi NW 6.9 mph - N/A   Mostly Cloudy
8:53 AM 63.0 °F 60.1 °F 90% 29.77 in 8.0 mi NNW 12.7 mph 20.7 mph N/A   Overcast
9:33 AM 62.6 °F 57.2 °F 82% 29.82 in 10.0 mi NW 10.4 mph 20.7 mph N/A   Overcast
9:50 AM 62.6 °F 57.2 °F 82% 29.82 in 10.0 mi NNW 12.7 mph 23.0 mph N/A   Overcast
9:53 AM 63.0 °F 57.0 °F 81% 29.80 in 10.0 mi NNW 12.7 mph 23.0 mph N/A   Overcast
10:10 AM 64.4 °F 57.2 °F 77% 29.82 in 10.0 mi NW 13.8 mph 21.9 mph N/A   Overcast
10:53 AM 64.0 °F 55.9 °F 75% 29.83 in 10.0 mi NW 17.3 mph 24.2 mph N/A   Overcast
11:53 AM 66.9 °F 55.0 °F 66% 29.83 in 10.0 mi NNW 10.4 mph 23.0 mph N/A   Overcast
12:01 PM 68.0 °F 55.4 °F 64% 29.86 in 10.0 mi NW 15.0 mph 21.9 mph N/A   Mostly Cloudy
12:46 PM 69.8 °F 55.4 °F 60% 29.87 in 10.0 mi North 12.7 mph 19.6 mph N/A   Mostly Cloudy
12:53 PM 69.1 °F 55.0 °F 61% 29.83 in 10.0 mi NNW 12.7 mph - N/A   Mostly Cloudy
1:24 PM 69.8 °F 55.4 °F 60% 29.86 in 10.0 mi NW 10.4 mph 18.4 mph N/A   Scattered Clouds
1:53 PM 70.0 °F 55.9 °F 61% 29.83 in 10.0 mi NW 17.3 mph 25.3 mph N/A   Mostly Cloudy
2:53 PM 71.1 °F 53.1 °F 53% 29.85 in 10.0 mi NW 15.0 mph 20.7 mph N/A   Scattered Clouds
3:53 PM 70.0 °F 52.0 °F 53% 29.86 in 10.0 mi North 11.5 mph - N/A   Scattered Clouds
4:53 PM 69.1 °F 51.1 °F 53% 29.87 in 10.0 mi North 10.4 mph - N/A   Clear
5:53 PM 66.9 °F 51.1 °F 57% 29.88 in 10.0 mi NNW 13.8 mph 18.4 mph N/A   Clear
6:53 PM 63.0 °F 50.0 °F 63% 29.90 in 10.0 mi NW 9.2 mph 17.3 mph N/A   Partly Cloudy
7:53 PM 61.0 °F 50.0 °F 67% 29.92 in 10.0 mi North 6.9 mph - N/A   Partly Cloudy
8:53 PM 57.9 °F 48.9 °F 72% 29.95 in 10.0 mi North 5.8 mph - N/A   Clear
9:53 PM 55.9 °F 46.9 °F 72% 29.98 in 10.0 mi North 9.2 mph - N/A   Clear
10:53 PM 55.9 °F 46.9 °F 72% 29.99 in 10.0 mi North 13.8 mph 19.6 mph N/A   Clear
11:53 PM 54.0 °F 46.0 °F 75% 30.00 in 10.0 mi North 9.2 mph 21.9 mph N/A   Clear